Back to catalog

OPS 6157

AliveMilitaryGEO
NORAD 6691·PAYLOAD·🇺🇸 United States

Launched Jun 12, 1973 from Cape Canaveral Space Force Station

Loading…

TLE

FreshSource: Space-Track

Epoch: Sep 14, 2026, 13:24 UTC

1 06691U 73040A   26257.55846213  .00000115  00000-0  00000-0 0  9999
2 06691   0.7747 207.1915 0006810  68.7857 139.1253  0.99818501 26834

Track OPS 6157 in real time with AllMySat

Download on the App Store